Superior, WI

10:30 AM CDT on April 23, 2018 (GMT -0500)
Bong

Weather History for KSUW - May, 2013

Change the Weather History Date:

Friday, May 17, 2013

  Actual Average Record
Temperature  
Mean Temperature 43 °F -  
Max Temperature 47 °F 58 °F 89 °F (1962)
Min Temperature 39 °F 40 °F 20 °F (1955)
Degree Days  
Heating Degree Days 22    
Moisture  
Dew Point 36 °F    
Average Humidity 77    
Maximum Humidity 86    
Minimum Humidity 67    
Precipitation  
Precipitation 0.00 in - - ()
Sea Level Pressure  
Sea Level Pressure 30.09 in    
Wind  
Wind Speed 12 mph (ENE)    
Max Wind Speed 18 mph    
Max Gust Speed 26 mph    
Visibility 10 miles    
Events      
Averages and records for this station are not official NWS values.
T = Trace of Precipitation, MM = Missing Value Source: NWS Daily Summary

Daily Weather History Graph

Daily Weather History Graph

Search for Another Location

Airport or City:

Astronomy

May. 17, 2013 Rise Set
Actual Time 5:31 AM CDT 8:38 PM CDT
Civil Twilight 4:55 AM CDT 9:15 PM CDT
Nautical Twilight 4:08 AM CDT 10:02 PM CDT
Astronomical Twilight 3:11 AM CDT 10:59 PM CDT
Moon 12:15 PM CDT (5/17) 1:22 AM CDT (5/17)
Length of Visible Light 16h 19m
Length of Day
15h 07m
Waxing Crescent, 45% of the Moon is Illuminated
May 17
Waxing Crescent
May 17
First Quarter
May 24
Full
May 31
Last Quarter
Jun 8
New

Hourly Weather History & Observations

Time (CDT) Temp. Windchill Dew Point Humidity Pressure Visibility Wind Dir Wind Speed Gust Speed Precip Events Conditions
12:15 AM 40.1 °F 34.1 °F 34.9 °F 82% 30.05 in 10.0 mi East 9.2 mph - N/A   Mostly Cloudy
12:35 AM 40.3 °F 33.9 °F 34.7 °F 80% 30.05 in 10.0 mi East 10.4 mph 17.3 mph N/A   Scattered Clouds
12:55 AM 40.5 °F 34.6 °F 34.9 °F 80% 30.06 in 10.0 mi ENE 9.2 mph - N/A   Mostly Cloudy
1:15 AM 40.6 °F 34.3 °F 34.9 °F 80% 30.05 in 10.0 mi ENE 10.4 mph - N/A   Scattered Clouds
1:35 AM 40.3 °F 34.4 °F 34.9 °F 81% 30.06 in 10.0 mi ENE 9.2 mph - N/A   Clear
1:55 AM 41.0 °F 35.8 °F 34.9 °F 79% 30.07 in 10.0 mi East 8.1 mph 17.3 mph N/A   Clear
2:15 AM 40.8 °F 34.5 °F 34.7 °F 79% 30.07 in 10.0 mi ENE 10.4 mph - N/A   Clear
2:35 AM 41.0 °F 35.2 °F 34.7 °F 78% 30.08 in 10.0 mi ENE 9.2 mph 16.1 mph N/A   Mostly Cloudy
2:55 AM 41.0 °F 34.3 °F 34.9 °F 79% 30.07 in 10.0 mi ENE 11.5 mph - N/A   Mostly Cloudy
3:15 AM 41.4 °F 35.2 °F 34.9 °F 78% 30.07 in 10.0 mi East 10.4 mph 18.4 mph N/A   Mostly Cloudy
3:35 AM 41.5 °F 34.6 °F 34.9 °F 77% 30.07 in 10.0 mi East 12.7 mph 19.6 mph N/A   Mostly Cloudy
3:55 AM 41.0 °F 32.8 °F 35.1 °F 79% 30.07 in 10.0 mi East 16.1 mph 21.9 mph N/A   Overcast
4:15 AM 41.0 °F 33.5 °F 35.2 °F 80% 30.07 in 10.0 mi East 13.8 mph 19.6 mph N/A   Overcast
4:35 AM 41.0 °F 33.9 °F 35.2 °F 80% 30.07 in 10.0 mi ENE 12.7 mph 24.2 mph N/A   Overcast
4:55 AM 41.0 °F 33.9 °F 35.4 °F 81% 30.07 in 10.0 mi ENE 12.7 mph 20.7 mph N/A   Overcast
5:15 AM 41.4 °F 34.0 °F 35.2 °F 79% 30.08 in 10.0 mi East 13.8 mph 21.9 mph N/A   Overcast
5:35 AM 41.4 °F 35.2 °F 35.2 °F 79% 30.09 in 10.0 mi ENE 10.4 mph 17.3 mph N/A   Overcast
5:55 AM 40.6 °F 33.0 °F 35.2 °F 81% 30.09 in 10.0 mi ENE 13.8 mph 21.9 mph N/A   Overcast
6:15 AM 40.1 °F 33.2 °F 35.4 °F 83% 30.09 in 10.0 mi ENE 11.5 mph 18.4 mph N/A   Overcast
6:35 AM 39.4 °F 31.8 °F 35.4 °F 86% 30.10 in 10.0 mi ENE 12.7 mph 18.4 mph N/A   Mostly Cloudy
7:15 AM 39.4 °F 32.3 °F 35.6 °F 86% 30.11 in 10.0 mi ENE 11.5 mph 18.4 mph N/A   Overcast
7:35 AM 40.1 °F 31.6 °F 35.6 °F 84% 30.11 in 10.0 mi ENE 16.1 mph 21.9 mph N/A   Mostly Cloudy
7:55 AM 41.4 °F 33.6 °F 36.0 °F 81% 30.12 in 10.0 mi ENE 15.0 mph 21.9 mph N/A   Clear
8:15 AM 42.1 °F 34.5 °F 36.0 °F 79% 30.11 in 10.0 mi ENE 15.0 mph 19.6 mph N/A   Clear
8:35 AM 41.9 °F 33.7 °F 35.8 °F 79% 30.12 in 10.0 mi ENE 17.3 mph 21.9 mph N/A   Clear
8:55 AM 42.8 °F 34.8 °F 36.1 °F 77% 30.12 in 10.0 mi ENE 17.3 mph 23.0 mph N/A   Clear
9:15 AM 42.6 °F 36.3 °F 36.0 °F 77% 30.12 in 10.0 mi ENE 11.5 mph 20.7 mph N/A   Clear
9:35 AM 43.9 °F 36.5 °F 36.1 °F 74% 30.12 in 10.0 mi East 16.1 mph 21.9 mph N/A   Clear
9:55 AM 43.9 °F 37.2 °F 36.0 °F 74% 30.12 in 10.0 mi East 13.8 mph 23.0 mph N/A   Clear
10:15 AM 44.2 °F 37.0 °F 36.0 °F 73% 30.12 in 10.0 mi ENE 16.1 mph 21.9 mph N/A   Clear
10:35 AM 45.0 °F 38.2 °F 36.1 °F 71% 30.12 in 10.0 mi ENE 15.0 mph 21.9 mph N/A   Clear
10:55 AM 44.6 °F 37.8 °F 36.1 °F 72% 30.12 in 10.0 mi ENE 15.0 mph 26.5 mph N/A   Clear
11:15 AM 45.0 °F 37.9 °F 36.0 °F 71% 30.12 in 10.0 mi ENE 16.1 mph 24.2 mph N/A   Clear
11:35 AM 44.6 °F 37.4 °F 36.0 °F 72% 30.11 in 10.0 mi ENE 16.1 mph 26.5 mph N/A   Clear
11:55 AM 44.6 °F 37.8 °F 36.0 °F 72% 30.11 in 10.0 mi ENE 15.0 mph 21.9 mph N/A   Clear
12:15 PM 45.1 °F 38.1 °F 36.1 °F 71% 30.11 in 10.0 mi ENE 16.1 mph 21.9 mph N/A   Clear
12:35 PM 43.9 °F 36.5 °F 36.0 °F 74% 30.11 in 10.0 mi ENE 16.1 mph 24.2 mph N/A   Clear
12:55 PM 43.9 °F 36.2 °F 36.0 °F 74% 30.11 in 10.0 mi ENE 17.3 mph 26.5 mph N/A   Clear
1:15 PM 44.4 °F 36.6 °F 35.8 °F 72% 30.10 in 10.0 mi ENE 18.4 mph 25.3 mph N/A   Clear
1:35 PM 45.3 °F 38.7 °F 36.1 °F 70% 30.10 in 10.0 mi ENE 15.0 mph 24.2 mph N/A   Clear
2:15 PM 47.1 °F - 36.5 °F 67% 30.09 in 10.0 mi NE 15.0 mph 24.2 mph N/A   Clear
2:35 PM 45.9 °F 39.1 °F 36.3 °F 69% 30.09 in 10.0 mi ENE 16.1 mph 24.2 mph N/A   Clear
2:55 PM 45.9 °F 39.1 °F 36.5 °F 70% 30.09 in 10.0 mi ENE 16.1 mph 21.9 mph N/A   Clear
3:15 PM 46.2 °F 40.1 °F 36.7 °F 69% 30.08 in 10.0 mi ENE 13.8 mph 19.6 mph N/A   Clear
3:35 PM 45.7 °F 39.5 °F 36.1 °F 69% 30.08 in 10.0 mi ENE 13.8 mph 26.5 mph N/A   Clear
3:55 PM 45.5 °F 38.3 °F 36.5 °F 71% 30.07 in 10.0 mi ENE 17.3 mph 23.0 mph N/A   Scattered Clouds
4:15 PM 45.7 °F 38.8 °F 36.5 °F 70% 30.08 in 10.0 mi ENE 16.1 mph 24.2 mph N/A   Scattered Clouds
4:35 PM 45.7 °F 39.5 °F 36.5 °F 70% 30.08 in 10.0 mi ENE 13.8 mph 20.7 mph N/A   Overcast
4:55 PM 47.5 °F - 37.0 °F 67% 30.07 in 10.0 mi ENE 11.5 mph 23.0 mph N/A   Mostly Cloudy
5:15 PM 45.9 °F 39.4 °F 36.5 °F 70% 30.07 in 10.0 mi ENE 15.0 mph 20.7 mph N/A   Mostly Cloudy
5:35 PM 45.7 °F 40.2 °F 36.7 °F 71% 30.07 in 10.0 mi ENE 11.5 mph 20.7 mph N/A   Scattered Clouds
6:15 PM 44.1 °F 37.4 °F 36.5 °F 75% 30.07 in 10.0 mi ENE 13.8 mph 17.3 mph N/A   Overcast
6:35 PM 43.9 °F 37.9 °F 36.5 °F 75% 30.07 in 10.0 mi ENE 11.5 mph 16.1 mph N/A   Overcast
6:55 PM 43.0 °F 36.0 °F 36.1 °F 77% 30.07 in 10.0 mi ENE 13.8 mph 19.6 mph N/A   Overcast
7:15 PM 42.4 °F 36.5 °F 36.1 °F 78% 30.08 in 10.0 mi ENE 10.4 mph 16.1 mph N/A   Overcast
7:35 PM 42.3 °F 37.3 °F 36.0 °F 78% 30.08 in 10.0 mi ENE 8.1 mph 18.4 mph N/A   Overcast
7:55 PM 42.1 °F 37.1 °F 36.0 °F 79% 30.08 in 10.0 mi ENE 8.1 mph - N/A   Overcast
8:15 PM 42.1 °F 36.1 °F 35.8 °F 78% 30.08 in 10.0 mi ENE 10.4 mph 17.3 mph N/A   Overcast
8:35 PM 42.1 °F 36.1 °F 36.0 °F 79% 30.08 in 10.0 mi ENE 10.4 mph 16.1 mph N/A   Overcast
8:55 PM 41.9 °F 35.9 °F 36.0 °F 79% 30.08 in 10.0 mi ENE 10.4 mph 16.1 mph N/A   Overcast
9:15 PM 41.9 °F 35.9 °F 36.1 °F 80% 30.07 in 10.0 mi ENE 10.4 mph - N/A   Overcast
9:35 PM 41.9 °F 35.9 °F 36.0 °F 79% 30.08 in 10.0 mi ENE 10.4 mph 17.3 mph N/A   Overcast
9:55 PM 41.9 °F 36.3 °F 36.0 °F 79% 30.07 in 10.0 mi ENE 9.2 mph - N/A   Overcast
10:15 PM 41.9 °F 36.3 °F 36.0 °F 79% 30.07 in 10.0 mi ENE 9.2 mph 16.1 mph N/A   Overcast
10:35 PM 42.1 °F 37.1 °F 36.1 °F 79% 30.07 in 10.0 mi ENE 8.1 mph - N/A   Overcast
10:55 PM 41.9 °F 36.3 °F 35.8 °F 79% 30.07 in 10.0 mi ENE 9.2 mph - N/A   Overcast
11:15 PM 41.5 °F 37.1 °F 36.0 °F 81% 30.07 in 10.0 mi ENE 6.9 mph - N/A   Overcast
11:35 PM 41.4 °F 36.8 °F 36.0 °F 81% 30.07 in 10.0 mi ENE 6.9 mph - N/A   Overcast
11:55 PM 41.2 °F 35.5 °F 36.1 °F 82% 30.07 in 10.0 mi ENE 9.2 mph - N/A   Overcast